Flag for Belgium Weather past 2 weeks in Leuven, Belgium

Now
55 °F

Passing clouds.


Feels Like: 55 °F
Forecast: 53 / 71 °F
Wind: 5 mph from Southwest

Location: Brussels National Airport

Current Time: Oct 2, 2014 at 7:58:01 AM

Latest Report: Oct 2, 2014 at 7:20 AM


Visibility: N/A

Pressure: 30.36 "Hg

Humidity: 88%

Dew point: 52 °F

Location of LeuvenLocation

Historic Weather in Leuven — Graph

°F

Leuven temperature yesterday

Maximum temperature yesterday: 72 °F (at 3:20 PM)
Minimum temperature yesterday: 52 °F (at 6:20 AM)
Average temperature yesterday: 61 °F

Past Weeks' High & Low Weather Summary

 TemperatureHumidityPressure
High79 °F (Sep 19, 4:20 PM)100% (Sep 19, 3:20 AM)30.36 "Hg (Sep 19, 3:20 AM)
Low46 °F (Sep 23, 7:50 AM)47% (Sep 17, 3:50 PM)29.80 "Hg (Sep 18, 4:20 AM)
Average61 °F80%30.11 "Hg
* Reported Sep 17 6:20 AM — Oct 2 6:50 AM, Leuven, Weather by CustomWeather, © 2014

Note: Actual official high and low records may vary slightly from our data, if they occured in-between our weather recording intervals... More about our weather records

Advertising

Leuven weather history for previous 24 hours

 ConditionsComfort  
Time TempWeatherWind HumidityBarometerVisibility
6:50 AM
Oct 2
57 °FPassing clouds.5 mph88%30.36 "HgN/A
6:20 AM57 °FPassing clouds.3 mph94%30.36 "HgN/A
5:50 AM59 °FPassing clouds.3 mph88%30.36 "HgN/A
5:20 AM59 °FPassing clouds.3 mph88%30.36 "HgN/A
4:50 AM59 °FPassing clouds.3 mph88%30.36 "HgN/A
4:20 AM59 °FPassing clouds.3 mph88%30.36 "HgN/A
3:50 AM59 °FPassing clouds.3 mph88%30.36 "HgN/A
3:20 AM57 °FPassing clouds.3 mph94%30.36 "HgN/A
2:50 AM57 °FPassing clouds.2 mph88%30.36 "HgN/A
2:20 AM57 °FPassing clouds.3 mph88%30.36 "HgN/A
1:50 AM59 °FPassing clouds.3 mph88%30.36 "HgN/A
1:20 AM57 °FClear.3 mph82%30.36 "Hg10 mi
12:50 AM59 °FClear.5 mph88%30.36 "Hg10 mi
12:20 AM57 °FPassing clouds.3 mph88%30.36 "HgN/A
11:50 PM
Oct 1
57 °FPassing clouds.5 mph88%30.36 "HgN/A
11:20 PM59 °FClear.5 mph88%30.36 "Hg10 mi
10:50 PM59 °FClear.6 mph88%30.36 "Hg10 mi
10:20 PM61 °FClear.6 mph83%30.33 "Hg10 mi
9:50 PM63 °FPassing clouds.6 mph77%30.33 "HgN/A
9:20 PM61 °FPassing clouds.5 mph83%30.33 "HgN/A
8:50 PM63 °FPassing clouds.5 mph77%30.33 "HgN/A
8:20 PM63 °FPassing clouds.5 mph77%30.33 "HgN/A
7:50 PM64 °FScattered clouds.2 mph68%30.33 "HgN/A
7:20 PM64 °FPassing clouds.3 mph73%30.33 "HgN/A
6:50 PM68 °FPassing clouds.2 mph64%30.30 "HgN/A
6:20 PM68 °FPassing clouds.5 mph60%30.30 "HgN/A
5:50 PM70 °FPassing clouds.6 mph60%30.30 "HgN/A
5:20 PM70 °FPassing clouds.7 mph60%30.30 "HgN/A
4:50 PM70 °FPassing clouds.3 mph60%30.30 "HgN/A
4:20 PM70 °FPassing clouds.3 mph60%30.30 "HgN/A
3:50 PM70 °FPassing clouds.6 mph57%30.30 "HgN/A
3:20 PM72 °FPassing clouds.5 mph57%30.30 "HgN/A
2:50 PM70 °FPassing clouds.6 mph60%30.30 "HgN/A
2:20 PM68 °FPassing clouds.6 mph64%30.33 "HgN/A
1:50 PM68 °FPassing clouds.3 mph69%30.33 "HgN/A
1:20 PM68 °FPassing clouds.6 mph69%30.33 "HgN/A
12:50 PM66 °FPassing clouds.6 mph73%30.33 "HgN/A
12:20 PM66 °FPassing clouds.8 mph68%30.33 "HgN/A
11:50 AM64 °FPassing clouds.7 mph73%30.33 "HgN/A
11:20 AM64 °FPassing clouds.8 mph78%30.33 "HgN/A
10:50 AM64 °FPassing clouds.7 mph73%30.33 "HgN/A
10:20 AM63 °FClear.5 mph77%30.33 "Hg5 mi
9:50 AM61 °FClear.3 mph83%30.33 "Hg5 mi
9:20 AM59 °FClear.5 mph88%30.30 "Hg5 mi
8:50 AM55 °FClear.6 mph88%30.30 "Hg5 mi
8:20 AM54 °FClear.5 mph88%30.30 "Hg4 mi
7:50 AM54 °FClear.6 mph88%30.30 "Hg4 mi
7:20 AM54 °FClear.7 mph88%30.30 "Hg6 mi
Weather by CustomWeather, © 2014

See weather overviewHow to use our weather pages